Kenai, AK

12:08 PM AKST on December 09, 2019 (GMT -0900)
Kenai Municipal

Weather History for PAEN - October, 2019

Change the Weather History Date:

Sunday, October 6, 2019

  Actual Average Record
Temperature  
Mean Temperature 40 °F -  
Max Temperature 51 °F 47 °F 57 °F (1993)
Min Temperature 26 °F 33 °F 13 °F (1958)
Degree Days  
Heating Degree Days 24    
Moisture  
Dew Point 23 °F    
Average Humidity 47    
Maximum Humidity 78    
Minimum Humidity 31    
Precipitation  
Precipitation 0.00 in - - ()
Sea Level Pressure  
Sea Level Pressure 29.89 in    
Wind  
Wind Speed 8 mph (WNW)    
Max Wind Speed 13 mph    
Max Gust Speed 20 mph    
Visibility 10 miles    
Events      
Averages and records for this station are not official NWS values.
T = Trace of Precipitation, MM = Missing Value Source: NWS Daily Summary

Daily Weather History Graph

Daily Weather History Graph

Search for Another Location

Airport or City:

Astronomy

Oct. 06, 2019 Rise Set
Actual Time 8:23 AM AKDT 7:21 PM AKDT
Civil Twilight 7:40 AM AKDT 8:03 PM AKDT
Nautical Twilight 6:51 AM AKDT 8:52 PM AKDT
Astronomical Twilight 6:00 AM AKDT 9:43 PM AKDT
Moon 6:10 PM AKDT (10/6) No Moon Set
Length of Visible Light 12h 22m
Length of Day
10h 58m
First Quarter, 61% of the Moon is Illuminated
Oct 6
First Quarter
Oct 13
Full
Oct 21
Last Quarter
Oct 27
New
Nov 4
First Quarter

Hourly Weather History & Observations

Time (AKDT) Temp. Windchill Dew Point Humidity Pressure Visibility Wind Dir Wind Speed Gust Speed Precip Events Conditions
12:53 AM 43.0 °F 38.2 °F 27.0 °F 53% 29.77 in 10.0 mi West 8.1 mph - N/A   Clear
1:53 AM 44.1 °F 39.0 °F 23.0 °F 43% 29.77 in 10.0 mi West 9.2 mph - N/A   Clear
2:53 AM 43.0 °F 36.8 °F 23.0 °F 45% 29.77 in 10.0 mi West 11.5 mph - N/A   Clear
3:53 AM 37.0 °F 31.0 °F 24.1 °F 59% 29.79 in 10.0 mi NE 8.1 mph - N/A   Clear
4:53 AM 41.0 °F 35.2 °F 23.0 °F 49% 29.79 in 10.0 mi WNW 9.2 mph - N/A   Clear
5:53 AM 43.0 °F 36.4 °F 21.9 °F 43% 29.80 in 10.0 mi West 12.7 mph - N/A   Clear
6:53 AM 43.0 °F 38.2 °F 21.0 °F 42% 29.80 in 10.0 mi West 8.1 mph - N/A   Clear
7:53 AM 43.0 °F 39.5 °F 21.9 °F 43% 29.80 in 10.0 mi West 5.8 mph - N/A   Clear
8:53 AM 42.1 °F 38.4 °F 24.1 °F 49% 29.81 in 10.0 mi West 5.8 mph - N/A   Clear
9:53 AM 45.0 °F 41.2 °F 23.0 °F 42% 29.82 in 10.0 mi West 6.9 mph - N/A   Clear
10:53 AM 46.0 °F 40.6 °F 24.1 °F 42% 29.84 in 10.0 mi West 11.5 mph 19.6 mph N/A   Clear
11:53 AM 46.9 °F - 24.1 °F 41% 29.85 in 10.0 mi West 12.7 mph - N/A   Clear
12:53 PM 48.0 °F - 25.0 °F 41% 29.87 in 10.0 mi West 10.4 mph - N/A   Clear
1:53 PM 48.9 °F - 25.0 °F 39% 29.88 in 10.0 mi West 12.7 mph - N/A   Clear
2:53 PM 50.0 °F - 24.1 °F 36% 29.90 in 10.0 mi WSW 9.2 mph - N/A   Clear
3:53 PM 51.1 °F - 23.0 °F 33% 29.91 in 10.0 mi WNW 5.8 mph - N/A   Clear
4:53 PM 51.1 °F - 21.0 °F 31% 29.93 in 10.0 mi North 10.4 mph - N/A   Clear
5:53 PM 50.0 °F - 21.0 °F 32% 29.96 in 10.0 mi NNW 6.9 mph - N/A   Clear
6:53 PM 46.9 °F - 24.1 °F 41% 29.98 in 10.0 mi NW 3.5 mph - N/A   Clear
7:53 PM 42.1 °F 39.2 °F 25.0 °F 51% 30.01 in 10.0 mi NNW 4.6 mph - N/A   Clear
8:53 PM 39.9 °F 37.8 °F 25.0 °F 55% 30.04 in 10.0 mi East 3.5 mph - N/A   Clear
9:53 PM 37.0 °F 34.5 °F 24.1 °F 59% 30.07 in 10.0 mi ENE 3.5 mph - N/A   Clear
10:53 PM 30.9 °F - 24.1 °F 76% 30.11 in 10.0 mi Calm Calm - N/A   Clear
11:53 PM 26.1 °F 21.9 °F 19.9 °F 78% 30.14 in 10.0 mi ENE 3.5 mph - N/A   Clear